THOR ABLESTAR DEB, 48810

Orbit data source: Space-Track

THOR ABLESTAR DEB, 48810 is space debris in LEO originally from a launch on Thu, 29 Jun 1961 UTC launched from the Air Force Eastern Test Range (AFETR). Debris objects in space refer to the collection of defunct objects orbiting the Earth. Examples of debris include non-operational satellites, rocket bodies, and fragments generated from explosions, collisions, or faulty payload assembly.

Loading next visibility...
Identifier
48810, 1961-015MN
Orbit
LEO
Country
Flag of USUS
Related business
Manufacturer
Unknown
Mission
Spacecraft
Bus & Motor
Unknown
Mass
Unknown
Launch date (UTC)
1961-06-29 (65 years ago)
Launch vehicle
Unknown
Launch site
Air Force Eastern Test Range (AFETR)
Object type
Payload
Rocket body
Debris
Shape & HBR
Unknown shape, 0.1 m
Radar Cross Section
Small (<0.1 m²)

Expand to show TLE details & history
Last TLE update: 1 day ago

TLE from 1 day ago
0 THOR ABLESTAR DEB
1 48810U 61015MN  26032.98384323  .00000043  00000-0  90868-4 0  9999
2 48810  66.8523 247.2679 0135456 209.2255 221.6548 13.89341747618571
Epoch: 2026-02-01T23:36Z
TLE epoch observation values (Epoch: 2026-02-01T23:36:44.055Z)
Latitude
59.80076°
Longitude
167.85086°
Altitude
1,014.83 km
Speed
7.313 km/s
True Right ascension
19h 36m 52s
True Declination
59° 39' 22"
Sunlit
Object was in daylight at epoch
Visualization orbit readout
Latitude
Unknown
Longitude
Unknown
Altitude
Unknown
Speed
Unknown
Apparent Right ascension
Unknown
Apparent Declination
Unknown
Sunlit
N/A
Visualization observer readout
Local Sidereal Time
07:47:08
Azimuth
Unknown
Elevation
Unknown
Doppler factor
Unknown
Orbital elements
Apogee altitude
1,028.311 km
Perigee altitude
830.343 km
Semi-major axis
7,307.464 km
Eccentricity
0.01355
Inclination
66.8523°
RAAN
247.2679°
Arg. of periapsis
209.2255°
True anomaly
220.63608°
Mean anomaly
221.6548°
Eccentric anomaly
221.14416°
Mean motion
3.47451 °/min
Orbital period
103.61 mins
BSTAR
0.000090868
Loading maneuver chart data...
Computing Atmospheric mass density...
Loading historical data...
Loading historical data...
Loading historical data...
Loading historical data...
Loading historical data...
Loading historical data...
Loading historical data...

Documentation

Showing up to 5 results
|